Wainwright, AK

8:49 PM AKDT on April 22, 2018 (GMT -0800)
Wainwright

Weather History for PAWI - September, 2012

Change the Weather History Date:

Saturday, September 22, 2012

  Actual Average (PABR) Record (PABR)
Temperature  
Mean Temperature 34 °F -  
Max Temperature 39 °F 31 °F 62 °F (1995)
Min Temperature 30 °F 25 °F 8 °F (1983)
Degree Days  
Heating Degree Days 30    
Moisture  
Dew Point 32 °F    
Average Humidity 91    
Maximum Humidity 93    
Minimum Humidity 86    
Precipitation  
Precipitation 0.07 in - - ()
Sea Level Pressure  
Sea Level Pressure 29.74 in    
Wind  
Wind Speed 7 mph (ENE)    
Max Wind Speed 23 mph    
Max Gust Speed 25 mph    
Visibility 6 miles    
Events Fog , Rain    
Averages and records for this station are not official NWS values.
T = Trace of Precipitation, MM = Missing Value Source: NWS Daily Summary

Daily Weather History Graph

Daily Weather History Graph

Search for Another Location

Airport or City:

Astronomy

Sep. 22, 2012 Rise Set
Actual Time 8:22 AM AKDT 8:39 PM AKDT
Civil Twilight 7:19 AM AKDT 9:42 PM AKDT
Nautical Twilight 5:57 AM AKDT 11:03 PM AKDT
Astronomical Twilight 3:56 AM AKDT 12:58 AM AKDT
Moon No Moon Rise No Moon Set
Length of Visible Light 14h 23m
Length of Day
12h 17m
Waxing Crescent, 50% of the Moon is Illuminated
Sep 22
Waxing Crescent
Sep 29
Full
Oct 7
Last Quarter
Oct 15
New
Oct 21
First Quarter

Hourly Weather History & Observations

Time (AKDT) Temp. Windchill Dew Point Humidity Pressure Visibility Wind Dir Wind Speed Gust Speed Precip Events Conditions
12:12 AM - - - N/A% 29.84 in 10.0 mi East 4.6 mph - N/A   Scattered Clouds
12:26 AM - - - N/A% 29.84 in 1.8 mi East 3.5 mph - N/A   Mostly Cloudy
12:53 AM - - - N/A% 29.83 in 2.0 mi East 3.5 mph - N/A   Mostly Cloudy
1:05 AM - - - N/A% 29.84 in 1.0 mi East 4.6 mph - N/A   Mist
1:12 AM - - - N/A% 29.84 in 0.8 mi East 5.8 mph - N/A   Mist
1:22 AM - - - N/A% 29.84 in 1.2 mi ESE 4.6 mph - N/A   Overcast
1:53 AM - - - N/A% 29.84 in 0.8 mi East 4.6 mph - N/A   Mist
2:04 AM - - - N/A% 29.85 in 2.5 mi ESE 4.6 mph - N/A   Overcast
2:11 AM - - - N/A% 29.85 in 4.0 mi SE 5.8 mph - N/A   Haze
2:21 AM - - - N/A% 29.85 in 2.0 mi SE 8.1 mph - N/A   Overcast
2:45 AM - - - N/A% 29.85 in 0.8 mi SE 4.6 mph - N/A   Overcast
2:53 AM - - - N/A% 29.84 in 0.8 mi SE 5.8 mph - N/A   Overcast
3:36 AM 35.6 °F 31.7 °F 33.8 °F 93% 29.83 in 1.0 mi SE 4.6 mph - N/A   Overcast
3:53 AM 33.1 °F 30.0 °F 30.9 °F 92% 29.83 in 0.8 mi East 3.5 mph - N/A   Overcast
4:00 AM 32.0 °F 28.7 °F 30.2 °F 93% 29.83 in 1.2 mi ESE 3.5 mph - N/A   Mostly Cloudy
4:11 AM 32.0 °F 26.4 °F 28.4 °F 87% 29.83 in 2.5 mi East 5.8 mph - N/A   Mostly Cloudy
4:21 AM 30.2 °F 24.3 °F 28.4 °F 93% 29.83 in 6.0 mi East 5.8 mph - N/A   Mostly Cloudy
4:30 AM 30.2 °F 25.4 °F 28.4 °F 93% 29.83 in 10.0 mi East 4.6 mph - N/A   Scattered Clouds
4:53 AM 30.9 °F 26.2 °F 28.9 °F 92% 29.83 in 10.0 mi East 4.6 mph - N/A   Clear
5:53 AM 30.9 °F - 28.9 °F 92% 29.81 in 10.0 mi Calm Calm - N/A   Clear
6:07 AM 30.2 °F 25.4 °F 28.4 °F 93% 29.80 in 10.0 mi East 4.6 mph - N/A   Partly Cloudy
6:28 AM 32.0 °F 27.5 °F 30.2 °F 93% 29.81 in 1.2 mi ESE 4.6 mph - N/A   Mostly Cloudy
6:53 AM 34.0 °F - 32.0 °F 92% 29.81 in 6.0 mi Calm Calm - N/A   Overcast
6:57 AM 33.8 °F - 32.0 °F 93% 29.81 in 1.5 mi Calm Calm - N/A   Overcast
7:06 AM 33.8 °F - 32.0 °F 93% 29.80 in 0.5 mi Calm Calm - N/A Fog Fog
7:14 AM 33.8 °F 28.6 °F 30.2 °F 87% 29.80 in 2.5 mi ENE 5.8 mph - N/A   Overcast
7:21 AM 33.8 °F 28.6 °F 30.2 °F 87% 29.80 in 10.0 mi ENE 5.8 mph - N/A   Overcast
7:45 AM 33.8 °F 28.6 °F 30.2 °F 87% 29.79 in 9.0 mi ENE 5.8 mph - N/A   Mostly Cloudy
7:53 AM 33.1 °F 26.9 °F 30.9 °F 92% 29.80 in 8.0 mi ENE 6.9 mph - N/A   Overcast
8:38 AM 33.8 °F 28.6 °F 32.0 °F 93% 29.79 in 2.5 mi NE 5.8 mph - N/A   Overcast
8:45 AM 33.8 °F 29.6 °F 32.0 °F 93% 29.79 in 8.0 mi NE 4.6 mph - N/A   Overcast
8:53 AM 34.0 °F 28.8 °F 32.0 °F 92% 29.79 in 10.0 mi NE 5.8 mph - N/A   Overcast
9:15 AM 33.8 °F 28.6 °F 32.0 °F 93% 29.78 in 1.8 mi NE 5.8 mph - N/A   Overcast
9:23 AM 33.8 °F 29.6 °F 32.0 °F 93% 29.79 in 3.0 mi NE 4.6 mph - N/A   Overcast
9:53 AM 34.0 °F 28.0 °F 32.0 °F 92% 29.77 in 10.0 mi NNE 6.9 mph - N/A   Overcast
10:33 AM 35.6 °F 29.9 °F 33.8 °F 93% 29.75 in 10.0 mi NE 6.9 mph - N/A   Overcast
10:53 AM 35.1 °F 28.6 °F 33.1 °F 92% 29.74 in 10.0 mi NE 8.1 mph - N/A   Overcast
11:17 AM 35.6 °F 29.2 °F 33.8 °F 93% 29.74 in 3.0 mi NE 8.1 mph - N/A   Overcast
11:53 AM 37.0 °F 29.8 °F 34.0 °F 89% 29.72 in 10.0 mi NE 10.4 mph - N/A   Overcast
12:53 PM 39.0 °F 31.4 °F 35.1 °F 86% 29.70 in 10.0 mi NNE 12.7 mph - N/A   Overcast
1:53 PM 39.0 °F 30.3 °F 35.1 °F 86% 29.68 in 10.0 mi NE 16.1 mph - N/A   Overcast
2:53 PM 39.0 °F 29.0 °F 36.0 °F 89% 29.64 in 6.0 mi NNE 20.7 mph - N/A   Overcast
3:53 PM - - - N/A% 29.60 in 10.0 mi NNE 17.3 mph - N/A   Overcast
4:42 PM - - - N/A% 29.58 in 2.5 mi NNE 19.6 mph - N/A   Overcast
4:53 PM - - - N/A% 29.57 in 2.5 mi NNE 19.6 mph - N/A   Overcast
5:03 PM - - - N/A% 29.57 in 3.0 mi NNE 18.4 mph - N/A   Overcast
6:51 PM - - - N/A% 29.51 in 10.0 mi NNE 19.6 mph - 0.00 in Rain Light Rain
6:53 PM - - - N/A% 29.51 in 10.0 mi NNE 18.4 mph - 0.00 in Rain Light Rain
8:53 PM - - - N/A% 29.46 in 10.0 mi NNE 23.0 mph - 0.02 in Rain Light Rain
9:53 PM - - - N/A% 29.43 in 10.0 mi NE 23.0 mph - 0.02 in Rain Light Rain
10:53 PM - - - N/A% 29.41 in 10.0 mi NNE 17.3 mph - 0.02 in Rain Light Rain
11:53 PM - - - N/A% 29.38 in 10.0 mi NNE 17.3 mph 25.3 mph 0.01 in   Overcast